Location: Newark
(41.0400°S, 62.7845°W)
Time: 08:11:43
(UTC+00:00)

Courier 1B Rocket - Pass Details

Date: 09 December 2021
Orbit: 920 x 1202 km, 28.3° (Epoch: 28 January)

Event Time Altitude Azimuth Distance (km) Brightness Sun altitude
Rises 16:38:55 0° 282° (WNW) 3,998 8.4 70.4°
Reaches altitude 10° 16:42:22 10° 296° (WNW) 3,074 8.0 70.1°
Maximum altitude 16:48:00 22° 343° (NNW) 2,318 7.7 69.6°
Drops below altitude 10° 16:53:43 10° 30° (NNE) 3,133 7.9 69.0°
Sets 16:57:17 0° 44° (NE) 4,094 8.3 68.6°
